This is the latest recevied weather packets stored in our database for station/object AJ7DN. If no packets are shown the sender has not sent any weather packets the latest 10 day(s).
| Time | Temp. | Humidity | Pressure | Rain* | Wind** | Luminosity | Snow |
|---|---|---|---|---|---|---|---|
| 1777484196 | 13.89° C | 61% | 1028.6 hPa | 0 mm | - | 714 W/m² | - |
| 1777483891 | 13.89° C | 62% | 1028.8 hPa | 0 mm | - | 704 W/m² | - |
| 1777483588 | 13.89° C | 62% | 1028.6 hPa | 0 mm | - | 692 W/m² | - |
| 1777483288 | 13.89° C | 62% | 1028.7 hPa | 0 mm | - | 662 W/m² | - |
| 1777482985 | 13.89° C | 63% | 1028.7 hPa | 0 mm | - | 660 W/m² | - |
| 1777482681 | 13.33° C | 64% | 1028.9 hPa | 0 mm | - | 637 W/m² | - |
| 1777482378 | 12.78° C | 64% | 1028.8 hPa | 0 mm | - | 609 W/m² | - |
| 1777482075 | 12.78° C | 63% | 1029 hPa | 0 mm | - | 580 W/m² | - |
| 1777481773 | 12.78° C | 65% | 1028.7 hPa | 0 mm | - | 549 W/m² | - |
| 1777481470 | 12.78° C | 67% | 1028.8 hPa | 0 mm | - | 548 W/m² | - |
| 1777481166 | 12.22° C | 65% | 1029.1 hPa | 0 mm | - | 537 W/m² | - |
| 1777480863 | 12.22° C | 66% | 1029 hPa | 0 mm | - | 508 W/m² | - |
| 1777480559 | 12.22° C | 65% | 1029 hPa | 0 mm | - | 456 W/m² | - |
| 1777480256 | 12.22° C | 67% | 1029.2 hPa | 0 mm | - | 409 W/m² | - |
| 1777479952 | 12.22° C | 67% | 1029 hPa | 0 mm | - | 376 W/m² | - |
| 1777479649 | 11.67° C | 70% | 1029.1 hPa | 0 mm | - | 344 W/m² | - |
| 1777479348 | 11.11° C | 71% | 1029.2 hPa | 0 mm | - | 346 W/m² | - |
| 1777479043 | 10.56° C | 72% | 1029.1 hPa | 0 mm | - | 369 W/m² | - |
| 1777478740 | 10.56° C | 73% | 1029.1 hPa | 0 mm | - | 197 W/m² | - |
| 1777478437 | 10° C | 74% | 1029.1 hPa | 0 mm | - | 66 W/m² | - |
| 1777478133 | 10° C | 73% | 1029.3 hPa | 0 mm | - | 39 W/m² | - |
| 1777477830 | 10° C | 73% | 1029.2 hPa | 0 mm | - | 35 W/m² | - |
| 1777477525 | 10° C | 74% | 1029.4 hPa | 0 mm | - | 34 W/m² | - |
| 1777477222 | 10° C | 74% | 1029.2 hPa | 0 mm | - | 33 W/m² | - |
| 1777476918 | 10° C | 74% | 1029.3 hPa | 0 mm | - | 33 W/m² | - |
* Rain latest hour (hover to see other rain measurements)
** Current wind speed in m/s (hover to see current wind gust speed)